SU7PY GATB-FTTJ

Flight info

Callsign SU7PY
Flight time N/A
Altitude 29000
Route ONIMI UR866 VOLBU UM974 NY G854 SIGAL SIGAL1A
Aircraft TBM8/L-SDFGRWY/S

Departure

Time 2026-05-04 00:45
Airport Tombouktou Airport (GATB)

Arrival

Time N/A
Airport N'Djamena International Airport (FTTJ)
Time Latitude Longitude Altitude Speed Heading
2026-05-04 00:30 16.72991 -3.00421 868 ft 0 kts 155°
2026-05-04 00:40 16.72991 -3.00410 865 ft 5 kts 36°
2026-05-04 00:40 16.73020 -3.00436 865 ft 8 kts 310°
2026-05-04 00:41 16.73067 -3.00490 866 ft 12 kts 313°
2026-05-04 00:41 16.73095 -3.00561 866 ft 10 kts 281°
2026-05-04 00:41 16.73089 -3.00642 867 ft 14 kts 250°
2026-05-04 00:41 16.73050 -3.00745 867 ft 16 kts 248°
2026-05-04 00:42 16.73009 -3.00849 867 ft 16 kts 248°
2026-05-04 00:42 16.72964 -3.00967 868 ft 19 kts 248°
2026-05-04 00:42 16.72909 -3.01103 867 ft 21 kts 248°
2026-05-04 00:42 16.72856 -3.01240 867 ft 19 kts 248°
2026-05-04 00:43 16.72807 -3.01359 867 ft 17 kts 248°
2026-05-04 00:43 16.72763 -3.01471 867 ft 16 kts 247°
2026-05-04 00:43 16.72725 -3.01575 868 ft 14 kts 257°
2026-05-04 00:43 16.72705 -3.01650 869 ft 7 kts 192°
2026-05-04 00:44 16.72708 -3.01614 868 ft 12 kts 67°
2026-05-04 00:44 16.72758 -3.01487 867 ft 45 kts 66°
2026-05-04 00:44 16.73024 -3.00811 867 ft 104 kts 68°
2026-05-04 00:44 16.73315 -3.00025 1012 ft 125 kts 68°
2026-05-04 00:45 16.73632 -2.99095 1263 ft 143 kts 70°
2026-05-04 00:45 16.73824 -2.98449 1591 ft 140 kts 71°
2026-05-04 00:45 16.74133 -2.97517 2142 ft 127 kts 51°
2026-05-04 00:45 16.74870 -2.97019 2551 ft 133 kts 14°
2026-05-04 00:46 16.76080 -2.97382 3082 ft 150 kts 326°
2026-05-04 00:46 16.76630 -2.98340 3485 ft 164 kts 291°
2026-05-04 00:46 16.76663 -2.99170 3700 ft 176 kts 267°
2026-05-04 00:46 16.76274 -3.00394 4108 ft 177 kts 254°
2026-05-04 00:47 16.75840 -3.01558 4653 ft 170 kts 250°
2026-05-04 00:47 16.75357 -3.02678 5039 ft 172 kts 246°
2026-05-04 00:47 16.74813 -3.03780 5485 ft 169 kts 243°
2026-05-04 00:47 16.74102 -3.04751 5904 ft 170 kts 221°
2026-05-04 00:48 16.73222 -3.05579 6298 ft 171 kts 221°
2026-05-04 00:48 16.72351 -3.06418 6687 ft 171 kts 223°
2026-05-04 00:48 16.71505 -3.07284 7086 ft 170 kts 224°
2026-05-04 00:48 16.70672 -3.08161 7481 ft 170 kts 225°
2026-05-04 00:49 16.69844 -3.09035 7898 ft 169 kts 224°
2026-05-04 00:49 16.69006 -3.09893 8294 ft 169 kts 224°
2026-05-04 00:49 16.68171 -3.10751 8697 ft 168 kts 224°
2026-05-04 00:49 16.67340 -3.11607 9118 ft 167 kts 224°
2026-05-04 00:50 16.66512 -3.12459 9525 ft 167 kts 224°
2026-05-04 00:50 16.65695 -3.13299 9909 ft 167 kts 224°
2026-05-04 00:50 16.64856 -3.14163 10273 ft 167 kts 224°
2026-05-04 00:50 16.64027 -3.15018 10632 ft 168 kts 224°
2026-05-04 00:51 16.63192 -3.15878 10983 ft 169 kts 225°
2026-05-04 00:51 16.62362 -3.16732 11336 ft 170 kts 225°
2026-05-04 00:51 16.61515 -3.17603 11695 ft 171 kts 225°
2026-05-04 00:51 16.60668 -3.18476 12056 ft 172 kts 225°
2026-05-04 00:52 16.59812 -3.19357 12413 ft 173 kts 225°
2026-05-04 00:52 16.58955 -3.20241 12772 ft 174 kts 225°
2026-05-04 00:52 16.58090 -3.21130 13135 ft 175 kts 226°
2026-05-04 00:52 16.57222 -3.22024 13500 ft 175 kts 226°
2026-05-04 00:53 16.56363 -3.22906 13836 ft 176 kts 226°
2026-05-04 00:53 16.55487 -3.23807 14147 ft 177 kts 226°
2026-05-04 00:53 16.54608 -3.24712 14473 ft 178 kts 226°
2026-05-04 00:53 16.53722 -3.25622 14788 ft 179 kts 225°
2026-05-04 00:54 16.52832 -3.26537 15110 ft 180 kts 225°
2026-05-04 00:54 16.51940 -3.27455 15435 ft 180 kts 225°
2026-05-04 00:54 16.51043 -3.28376 15753 ft 181 kts 225°
2026-05-04 00:54 16.50143 -3.29301 16069 ft 182 kts 225°
2026-05-04 00:55 16.49237 -3.30234 16387 ft 183 kts 225°
2026-05-04 00:55 16.48328 -3.31167 16704 ft 184 kts 225°
2026-05-04 00:55 16.47427 -3.32092 17024 ft 185 kts 225°
2026-05-04 00:55 16.46509 -3.33035 17333 ft 186 kts 225°
2026-05-04 00:56 16.45586 -3.33983 17647 ft 187 kts 225°
2026-05-04 00:56 16.44658 -3.34937 17959 ft 188 kts 225°
2026-05-04 00:56 16.43724 -3.35897 18254 ft 189 kts 225°
2026-05-04 00:56 16.42783 -3.36862 18526 ft 190 kts 225°
2026-05-04 00:57 16.41747 -3.37713 18799 ft 191 kts 206°
2026-05-04 00:57 16.40463 -3.38061 19055 ft 193 kts 183°
2026-05-04 00:57 16.39136 -3.37853 19315 ft 195 kts 160°
2026-05-04 00:57 16.37898 -3.37267 19568 ft 196 kts 156°
2026-05-04 00:58 16.36645 -3.36684 19835 ft 197 kts 156°
2026-05-04 00:58 16.35388 -3.36096 20096 ft 198 kts 156°
2026-05-04 00:58 16.34141 -3.35507 20351 ft 200 kts 156°
2026-05-04 00:58 16.32872 -3.34909 20610 ft 201 kts 156°
2026-05-04 00:59 16.31594 -3.34308 20874 ft 202 kts 156°
2026-05-04 00:59 16.30309 -3.33703 21132 ft 203 kts 156°
2026-05-04 00:59 16.29014 -3.33094 21390 ft 204 kts 156°
2026-05-04 00:59 16.27715 -3.32482 21643 ft 205 kts 155°
2026-05-04 01:00 16.26409 -3.31869 21900 ft 207 kts 156°
2026-05-04 01:00 16.25095 -3.31250 22151 ft 208 kts 155°
2026-05-04 01:00 16.23777 -3.30631 22397 ft 209 kts 155°
2026-05-04 01:00 16.22448 -3.30006 22652 ft 210 kts 155°
2026-05-04 01:01 16.21131 -3.29387 22897 ft 211 kts 155°
2026-05-04 01:01 16.19791 -3.28757 23142 ft 212 kts 155°
2026-05-04 01:01 16.18444 -3.28124 23391 ft 213 kts 155°
2026-05-04 01:01 16.17087 -3.27487 23599 ft 214 kts 156°
2026-05-04 01:02 16.15726 -3.26848 23808 ft 215 kts 156°
2026-05-04 01:02 16.14357 -3.26204 24003 ft 216 kts 156°
2026-05-04 01:02 16.12987 -3.25560 24202 ft 217 kts 156°
2026-05-04 01:02 16.11611 -3.24913 24389 ft 218 kts 156°
2026-05-04 01:03 16.10222 -3.24258 24589 ft 219 kts 157°
2026-05-04 01:03 16.08849 -3.23614 24780 ft 220 kts 157°
2026-05-04 01:03 16.07448 -3.22957 24974 ft 221 kts 157°
2026-05-04 01:03 16.06042 -3.22298 25175 ft 222 kts 157°
2026-05-04 01:04 16.04637 -3.21639 25371 ft 222 kts 158°
2026-05-04 01:04 16.03226 -3.20977 25568 ft 223 kts 158°
2026-05-04 01:04 16.01809 -3.20313 25762 ft 223 kts 158°
2026-05-04 01:04 16.00393 -3.19648 25955 ft 224 kts 158°
2026-05-04 01:05 15.98968 -3.18980 26147 ft 225 kts 158°
2026-05-04 01:05 15.97539 -3.18311 26334 ft 226 kts 158°
2026-05-04 01:05 15.96107 -3.17639 26523 ft 226 kts 158°
2026-05-04 01:05 15.94665 -3.16963 26708 ft 227 kts 158°
2026-05-04 01:06 15.93221 -3.16286 26892 ft 228 kts 158°
2026-05-04 01:06 15.91792 -3.15616 27070 ft 229 kts 158°
2026-05-04 01:06 15.90337 -3.14934 27248 ft 230 kts 158°
2026-05-04 01:06 15.88879 -3.14251 27427 ft 231 kts 159°
2026-05-04 01:07 15.87413 -3.13564 27604 ft 231 kts 159°
2026-05-04 01:07 15.85943 -3.12876 27777 ft 232 kts 159°
2026-05-04 01:07 15.84467 -3.12185 27948 ft 233 kts 159°
2026-05-04 01:07 15.82987 -3.11491 28122 ft 234 kts 159°
2026-05-04 01:08 15.81501 -3.10796 28291 ft 235 kts 159°
2026-05-04 01:08 15.80011 -3.10098 28457 ft 236 kts 159°
2026-05-04 01:08 15.78504 -3.09394 28628 ft 237 kts 159°
2026-05-04 01:08 15.76996 -3.08688 28789 ft 237 kts 159°
2026-05-04 01:09 15.75493 -3.07986 28836 ft 244 kts 159°
2026-05-04 01:09 15.73915 -3.07253 28847 ft 251 kts 159°
2026-05-04 01:09 15.72301 -3.06500 28851 ft 258 kts 159°
2026-05-04 01:09 15.70639 -3.05712 28854 ft 265 kts 158°
2026-05-04 01:10 15.68942 -3.04911 28856 ft 271 kts 159°
2026-05-04 01:10 15.67203 -3.04105 28857 ft 276 kts 159°
2026-05-04 01:10 15.65433 -3.03283 28850 ft 281 kts 159°
2026-05-04 01:10 15.63638 -3.02443 28853 ft 285 kts 158°
2026-05-04 01:11 15.61839 -3.01601 28851 ft 289 kts 158°
2026-05-04 01:11 15.59997 -3.00741 28855 ft 292 kts 158°
2026-05-04 01:11 15.58132 -2.99871 28855 ft 295 kts 158°
2026-05-04 01:11 15.56251 -2.98993 28857 ft 297 kts 158°
2026-05-04 01:12 15.54355 -2.98108 28852 ft 300 kts 158°
2026-05-04 01:12 15.50529 -2.96323 28862 ft 303 kts 158°
2026-05-04 01:13 15.46668 -2.94522 28853 ft 306 kts 158°
2026-05-04 01:13 15.42774 -2.92707 28860 ft 307 kts 158°
2026-05-04 01:14 15.38885 -2.90894 28862 ft 309 kts 158°
2026-05-04 01:14 15.34965 -2.89068 28859 ft 310 kts 158°
2026-05-04 01:15 15.31028 -2.87236 28865 ft 309 kts 158°
2026-05-04 01:15 15.27104 -2.85408 28863 ft 309 kts 158°
2026-05-04 01:16 15.23176 -2.83581 28868 ft 309 kts 158°
2026-05-04 01:16 15.19272 -2.81765 28869 ft 309 kts 158°
2026-05-04 01:17 15.15341 -2.79937 28868 ft 310 kts 158°
2026-05-04 01:17 15.11406 -2.78105 28872 ft 310 kts 158°
2026-05-04 01:18 15.07457 -2.76273 28873 ft 311 kts 158°
2026-05-04 01:18 15.03514 -2.74445 28871 ft 311 kts 158°
2026-05-04 01:19 14.99568 -2.72614 28870 ft 311 kts 158°
2026-05-04 01:19 14.95613 -2.70781 28869 ft 311 kts 158°
2026-05-04 01:20 14.91682 -2.68959 28866 ft 311 kts 158°
2026-05-04 01:20 14.87721 -2.67124 28870 ft 312 kts 158°
2026-05-04 01:21 14.83758 -2.65289 28872 ft 312 kts 158°
2026-05-04 01:21 14.79800 -2.63458 28866 ft 312 kts 158°
2026-05-04 01:22 14.75840 -2.61625 28868 ft 312 kts 158°
2026-05-04 01:22 14.71880 -2.59794 28870 ft 311 kts 158°
2026-05-04 01:23 14.67925 -2.57966 28862 ft 311 kts 158°
2026-05-04 01:23 14.64002 -2.56153 28870 ft 311 kts 158°
2026-05-04 01:24 14.60057 -2.54331 28875 ft 310 kts 158°
2026-05-04 01:24 14.56114 -2.52510 28873 ft 310 kts 158°
2026-05-04 01:25 14.52177 -2.50694 28874 ft 310 kts 158°
2026-05-04 01:25 14.48246 -2.48880 28874 ft 309 kts 158°
2026-05-04 01:26 14.44316 -2.47066 28871 ft 309 kts 158°
2026-05-04 01:26 14.42461 -2.45938 28862 ft 312 kts 143°
2026-05-04 01:26 14.40931 -2.44348 28871 ft 314 kts 129°
2026-05-04 01:26 14.39823 -2.42399 28862 ft 316 kts 114°
2026-05-04 01:27 14.39212 -2.40225 28866 ft 317 kts 101°
2026-05-04 01:27 14.38386 -2.35762 28866 ft 316 kts 102°
2026-05-04 01:28 14.37556 -2.31337 28876 ft 316 kts 102°
2026-05-04 01:28 14.36723 -2.26888 28872 ft 316 kts 102°
2026-05-04 01:29 14.35888 -2.22440 28877 ft 316 kts 102°
2026-05-04 01:29 14.35053 -2.17993 28873 ft 316 kts 102°
2026-05-04 01:30 14.34217 -2.13550 28874 ft 315 kts 102°
2026-05-04 01:30 14.33380 -2.09099 28873 ft 315 kts 102°
2026-05-04 01:31 14.32544 -2.04662 28874 ft 315 kts 102°
2026-05-04 01:31 14.31711 -2.00249 28875 ft 315 kts 102°
2026-05-04 01:32 14.30874 -1.95813 28875 ft 315 kts 102°
2026-05-04 01:32 14.30036 -1.91379 28871 ft 315 kts 102°
2026-05-04 01:33 14.29198 -1.86951 28874 ft 314 kts 102°
2026-05-04 01:33 14.28358 -1.82519 28874 ft 314 kts 102°
2026-05-04 01:34 14.27525 -1.78125 28876 ft 314 kts 102°
2026-05-04 01:34 14.26684 -1.73696 28877 ft 314 kts 102°
2026-05-04 01:35 14.25987 -1.70024 28872 ft 314 kts 102°
2026-05-04 01:35 14.25147 -1.65607 28874 ft 314 kts 102°
2026-05-04 01:36 14.24304 -1.61178 28871 ft 314 kts 102°
2026-05-04 01:36 14.23462 -1.56762 28877 ft 314 kts 102°
2026-05-04 01:37 14.22624 -1.52370 28872 ft 314 kts 102°
2026-05-04 01:37 14.21780 -1.47952 28876 ft 314 kts 102°
2026-05-04 01:38 14.20937 -1.43539 28870 ft 314 kts 102°
2026-05-04 01:38 14.20090 -1.39116 28872 ft 314 kts 102°
2026-05-04 01:39 14.19247 -1.34721 28875 ft 314 kts 102°
2026-05-04 01:39 14.18402 -1.30305 28868 ft 314 kts 102°
2026-05-04 01:40 14.17552 -1.25891 28867 ft 314 kts 102°
2026-05-04 01:40 14.16704 -1.21472 28869 ft 314 kts 102°
2026-05-04 01:41 14.15853 -1.17043 28874 ft 314 kts 102°
2026-05-04 01:41 14.15005 -1.12650 28870 ft 315 kts 102°
2026-05-04 01:42 14.14152 -1.08220 28875 ft 314 kts 102°
2026-05-04 01:42 14.13298 -1.03796 28879 ft 315 kts 102°
2026-05-04 01:43 14.12443 -0.99363 28877 ft 315 kts 102°
2026-05-04 01:43 14.11590 -0.94961 28870 ft 315 kts 102°
2026-05-04 01:44 14.10733 -0.90529 28877 ft 315 kts 102°
2026-05-04 01:44 14.09873 -0.86094 28873 ft 316 kts 102°
2026-05-04 01:45 14.09014 -0.81663 28870 ft 316 kts 102°
2026-05-04 01:45 14.07722 -0.75007 28879 ft 316 kts 102°
2026-05-04 01:46 14.06859 -0.70570 28879 ft 316 kts 102°
2026-05-04 01:46 14.05997 -0.66134 28882 ft 316 kts 102°
2026-05-04 01:47 14.05139 -0.61733 28877 ft 316 kts 102°
2026-05-04 01:47 14.04275 -0.57296 28873 ft 316 kts 102°
2026-05-04 01:48 14.03408 -0.52858 28878 ft 316 kts 102°
2026-05-04 01:48 14.02542 -0.48424 28878 ft 316 kts 102°
2026-05-04 01:49 14.01675 -0.43993 28877 ft 316 kts 102°
2026-05-04 01:49 14.00808 -0.39562 28876 ft 316 kts 102°
2026-05-04 01:50 13.99940 -0.35125 28875 ft 316 kts 102°
2026-05-04 01:50 13.99076 -0.30720 28877 ft 316 kts 102°
2026-05-04 01:51 13.98206 -0.26286 28874 ft 316 kts 102°
2026-05-04 01:51 13.97334 -0.21849 28873 ft 316 kts 102°
2026-05-04 01:52 13.96463 -0.17415 28871 ft 316 kts 103°
2026-05-04 01:52 13.95591 -0.12981 28874 ft 316 kts 103°
2026-05-04 01:53 13.94717 -0.08546 28865 ft 316 kts 103°
2026-05-04 01:53 13.93847 -0.04138 28871 ft 316 kts 103°
2026-05-04 01:54 13.92971 0.00303 28870 ft 316 kts 103°
2026-05-04 01:54 13.92091 0.04747 28871 ft 316 kts 103°
2026-05-04 01:55 13.91210 0.09193 28870 ft 316 kts 103°
2026-05-04 01:55 13.90334 0.13610 28867 ft 316 kts 103°
2026-05-04 01:56 13.89451 0.18056 28869 ft 316 kts 103°
2026-05-04 01:56 13.88569 0.22497 28863 ft 316 kts 103°
2026-05-04 01:57 13.87692 0.26903 28862 ft 316 kts 103°
2026-05-04 01:57 13.86808 0.31343 28869 ft 316 kts 103°
2026-05-04 01:58 13.85924 0.35779 28866 ft 316 kts 102°
2026-05-04 01:58 13.85037 0.40222 28865 ft 316 kts 102°
2026-05-04 01:59 13.84151 0.44659 28861 ft 317 kts 102°
2026-05-04 01:59 13.83263 0.49100 28862 ft 317 kts 103°
2026-05-04 02:00 13.82376 0.53537 28856 ft 316 kts 102°
2026-05-04 02:00 13.81491 0.57951 28863 ft 316 kts 102°
2026-05-04 02:01 13.80602 0.62389 28862 ft 317 kts 102°
2026-05-04 02:01 13.79711 0.66826 28859 ft 316 kts 103°
2026-05-04 02:02 13.78815 0.71262 28862 ft 316 kts 103°
2026-05-04 02:02 13.77921 0.75675 28855 ft 317 kts 103°
2026-05-04 02:03 13.77024 0.80106 28847 ft 317 kts 103°
2026-05-04 02:03 13.76125 0.84540 28855 ft 316 kts 103°
2026-05-04 02:04 13.75226 0.88976 28849 ft 316 kts 102°
2026-05-04 02:04 13.74327 0.93405 28857 ft 316 kts 103°
2026-05-04 02:05 13.73430 0.97806 28860 ft 316 kts 102°
2026-05-04 02:05 13.72532 1.02230 28852 ft 316 kts 103°
2026-05-04 02:06 13.71631 1.06649 28863 ft 316 kts 103°
2026-05-04 02:06 13.70729 1.11067 28862 ft 315 kts 103°
2026-05-04 02:07 13.69830 1.15484 28864 ft 315 kts 103°
2026-05-04 02:07 13.68927 1.19904 28860 ft 315 kts 103°
2026-05-04 02:08 13.68031 1.24285 28863 ft 315 kts 103°
2026-05-04 02:08 13.67130 1.28690 28861 ft 315 kts 103°
2026-05-04 02:09 13.66227 1.33097 28856 ft 314 kts 103°
2026-05-04 02:09 13.65327 1.37488 28867 ft 314 kts 103°
2026-05-04 02:10 13.64424 1.41888 28867 ft 314 kts 103°
2026-05-04 02:10 13.63524 1.46270 28869 ft 313 kts 103°
2026-05-04 02:11 13.62622 1.50655 28868 ft 313 kts 103°
2026-05-04 02:11 13.61722 1.55029 28874 ft 313 kts 103°
2026-05-04 02:12 13.60827 1.59372 28867 ft 312 kts 103°
2026-05-04 02:12 13.59930 1.63734 28876 ft 312 kts 103°
2026-05-04 02:13 13.59030 1.68087 28871 ft 311 kts 103°
2026-05-04 02:13 13.58133 1.72440 28872 ft 311 kts 103°
2026-05-04 02:14 13.57232 1.76791 28875 ft 311 kts 103°
2026-05-04 02:14 13.56333 1.81132 28873 ft 310 kts 103°
2026-05-04 02:15 13.55434 1.85475 28877 ft 310 kts 103°
2026-05-04 02:15 13.54535 1.89811 28862 ft 310 kts 103°
2026-05-04 02:16 13.53642 1.94120 28863 ft 310 kts 103°
2026-05-04 02:16 13.52740 1.98462 28867 ft 310 kts 103°
2026-05-04 02:17 13.51838 2.02797 28866 ft 310 kts 103°
2026-05-04 02:17 13.50937 2.07129 28862 ft 310 kts 103°
2026-05-04 02:18 13.50037 2.11458 28859 ft 310 kts 103°
2026-05-04 02:18 13.49131 2.15790 28859 ft 310 kts 103°
2026-05-04 02:19 13.48249 2.20106 28861 ft 311 kts 100°
2026-05-04 02:19 13.48199 2.22322 28863 ft 312 kts 86°
2026-05-04 02:19 13.48349 2.24549 28863 ft 311 kts 87°
2026-05-04 02:20 13.48581 2.28996 28869 ft 312 kts 87°
2026-05-04 02:20 13.48845 2.33437 28865 ft 312 kts 87°
2026-05-04 02:21 13.49096 2.37891 28870 ft 312 kts 87°
2026-05-04 02:21 13.49349 2.42325 28876 ft 313 kts 87°
2026-05-04 02:22 13.49601 2.46785 28876 ft 313 kts 87°
2026-05-04 02:22 13.49854 2.51257 28881 ft 313 kts 87°
2026-05-04 02:23 13.50063 2.54973 28883 ft 313 kts 87°
2026-05-04 02:23 13.50314 2.59444 28881 ft 314 kts 87°
2026-05-04 02:24 13.50565 2.63928 28882 ft 314 kts 87°
2026-05-04 02:24 13.50815 2.68411 28881 ft 314 kts 87°
2026-05-04 02:25 13.51064 2.72898 28878 ft 314 kts 87°
2026-05-04 02:25 13.51314 2.77390 28876 ft 315 kts 87°
2026-05-04 02:26 13.51561 2.81862 28877 ft 315 kts 87°
2026-05-04 02:26 13.51809 2.86365 28876 ft 315 kts 86°
2026-05-04 02:27 13.52057 2.90870 28869 ft 316 kts 86°
2026-05-04 02:27 13.52303 2.95374 28869 ft 316 kts 86°
2026-05-04 02:28 13.52549 2.99888 28869 ft 316 kts 86°
2026-05-04 02:28 13.52793 3.04365 28866 ft 316 kts 86°
2026-05-04 02:29 13.53038 3.08886 28866 ft 316 kts 86°
2026-05-04 02:29 13.53282 3.13405 28868 ft 317 kts 86°
2026-05-04 02:30 13.53526 3.17923 28863 ft 317 kts 86°
2026-05-04 02:30 13.53768 3.22446 28861 ft 317 kts 86°
2026-05-04 02:31 13.54010 3.26963 28864 ft 317 kts 86°
2026-05-04 02:31 13.54250 3.31487 28863 ft 317 kts 86°
2026-05-04 02:32 13.54490 3.35976 28863 ft 317 kts 86°
2026-05-04 02:32 13.54729 3.40504 28856 ft 317 kts 86°
2026-05-04 02:33 13.54968 3.45034 28861 ft 317 kts 86°
2026-05-04 02:33 13.55206 3.49567 28859 ft 317 kts 86°
2026-05-04 02:34 13.55442 3.54072 28861 ft 317 kts 86°
2026-05-04 02:34 13.55679 3.58607 28861 ft 317 kts 86°
2026-05-04 02:35 13.55904 3.63143 28859 ft 317 kts 86°
2026-05-04 02:35 13.56131 3.67677 28858 ft 318 kts 86°
2026-05-04 02:36 13.56355 3.72182 28856 ft 318 kts 86°
2026-05-04 02:36 13.56580 3.76723 28860 ft 318 kts 86°
2026-05-04 02:37 13.56805 3.81263 28855 ft 318 kts 86°
2026-05-04 02:37 13.57028 3.85800 28853 ft 318 kts 86°
2026-05-04 02:38 13.57250 3.90350 28856 ft 318 kts 86°
2026-05-04 02:38 13.57473 3.94892 28852 ft 318 kts 86°
2026-05-04 02:39 13.57693 3.99402 28854 ft 318 kts 86°
2026-05-04 02:39 13.57912 4.03944 28854 ft 318 kts 87°
2026-05-04 02:40 13.58132 4.08491 28856 ft 318 kts 86°
2026-05-04 02:40 13.58351 4.13029 28857 ft 318 kts 86°
2026-05-04 02:41 13.58568 4.17567 28856 ft 318 kts 87°
2026-05-04 02:41 13.58784 4.22073 28846 ft 318 kts 87°
2026-05-04 02:42 13.58999 4.26612 28852 ft 318 kts 87°
2026-05-04 02:42 13.59214 4.31147 28853 ft 317 kts 87°
2026-05-04 02:43 13.59429 4.35685 28852 ft 317 kts 87°
2026-05-04 02:43 13.59641 4.40220 28849 ft 317 kts 87°
2026-05-04 02:44 13.59848 4.44719 28849 ft 317 kts 87°
2026-05-04 02:44 13.60058 4.49247 28848 ft 317 kts 87°
2026-05-04 02:45 13.60265 4.53778 28853 ft 317 kts 87°
2026-05-04 02:45 13.60474 4.58302 28850 ft 317 kts 87°
2026-05-04 02:46 13.60680 4.62830 28847 ft 317 kts 87°
2026-05-04 02:46 13.60886 4.67355 28840 ft 316 kts 87°
2026-05-04 02:47 13.61088 4.71848 28842 ft 316 kts 87°
2026-05-04 02:47 13.61278 4.76368 28845 ft 316 kts 88°
2026-05-04 02:48 13.61463 4.80887 28841 ft 316 kts 88°
2026-05-04 02:48 13.61651 4.85410 28845 ft 316 kts 88°
2026-05-04 02:49 13.61835 4.89927 28844 ft 316 kts 88°
2026-05-04 02:49 13.62020 4.94446 28847 ft 316 kts 88°
2026-05-04 02:50 13.62205 4.98969 28845 ft 316 kts 88°
2026-05-04 02:50 13.62387 5.03489 28843 ft 316 kts 88°
2026-05-04 02:51 13.62569 5.07980 28838 ft 316 kts 88°
2026-05-04 02:51 13.62749 5.12497 28840 ft 316 kts 88°
2026-05-04 02:52 13.62930 5.17016 28833 ft 316 kts 88°
2026-05-04 02:52 13.63110 5.21538 28842 ft 316 kts 88°
2026-05-04 02:53 13.63289 5.26053 28843 ft 316 kts 88°
2026-05-04 02:53 13.63466 5.30538 28843 ft 316 kts 88°
2026-05-04 02:54 13.63642 5.35048 28838 ft 316 kts 88°
2026-05-04 02:54 13.63818 5.39554 28842 ft 315 kts 88°
2026-05-04 02:55 13.64081 5.46309 28839 ft 315 kts 88°
2026-05-04 02:56 13.64255 5.50818 28840 ft 315 kts 88°
2026-05-04 02:56 13.64427 5.55310 28840 ft 315 kts 88°
2026-05-04 02:57 13.64599 5.59802 28841 ft 314 kts 88°
2026-05-04 02:57 13.64769 5.64267 28842 ft 314 kts 88°
2026-05-04 02:58 13.64939 5.68771 28835 ft 314 kts 88°
2026-05-04 02:58 13.65109 5.73263 28836 ft 314 kts 88°
2026-05-04 02:59 13.65277 5.77757 28837 ft 314 kts 88°
2026-05-04 02:59 13.65444 5.82249 28836 ft 314 kts 88°
2026-05-04 03:00 13.65611 5.86741 28835 ft 314 kts 88°
2026-05-04 03:00 13.65778 5.91232 28834 ft 314 kts 88°
2026-05-04 03:01 13.65941 5.95695 28830 ft 314 kts 88°
2026-05-04 03:01 13.66106 6.00195 28834 ft 314 kts 88°
2026-05-04 03:02 13.66269 6.04694 28830 ft 314 kts 88°
2026-05-04 03:02 13.66432 6.09190 28833 ft 314 kts 88°
2026-05-04 03:03 13.66595 6.13682 28828 ft 314 kts 88°
2026-05-04 03:03 13.66755 6.18142 28829 ft 314 kts 88°
2026-05-04 03:04 13.66914 6.22632 28831 ft 314 kts 88°
2026-05-04 03:04 13.67085 6.27121 28832 ft 314 kts 87°
2026-05-04 03:05 13.67321 6.31604 28833 ft 314 kts 87°
2026-05-04 03:05 13.67527 6.36068 28832 ft 314 kts 87°
2026-05-04 03:06 13.67742 6.40552 28832 ft 314 kts 87°
2026-05-04 03:06 13.67954 6.45031 28836 ft 314 kts 87°
2026-05-04 03:07 13.68165 6.49513 28834 ft 313 kts 87°
2026-05-04 03:07 13.68377 6.53996 28832 ft 313 kts 87°
2026-05-04 03:08 13.68585 6.58448 28835 ft 314 kts 87°
2026-05-04 03:08 13.68795 6.62935 28835 ft 313 kts 87°
2026-05-04 03:09 13.69003 6.67414 28833 ft 313 kts 87°
2026-05-04 03:09 13.69210 6.71898 28835 ft 313 kts 87°
2026-05-04 03:10 13.69416 6.76347 28834 ft 313 kts 87°
2026-05-04 03:10 13.69622 6.80820 28833 ft 313 kts 87°
2026-05-04 03:11 13.69826 6.85300 28833 ft 313 kts 87°
2026-05-04 03:11 13.70030 6.89771 28831 ft 313 kts 87°
2026-05-04 03:12 13.70233 6.94239 28836 ft 313 kts 87°
2026-05-04 03:12 13.70436 6.98709 28835 ft 313 kts 87°
2026-05-04 03:13 13.70603 7.02430 28839 ft 313 kts 87°
2026-05-04 03:13 13.70836 7.07626 28835 ft 313 kts 87°
2026-05-04 03:14 13.71004 7.11373 28841 ft 312 kts 87°
2026-05-04 03:14 13.71182 7.15838 28833 ft 312 kts 88°
2026-05-04 03:15 13.71335 7.20270 28842 ft 312 kts 88°
2026-05-04 03:15 13.71500 7.24735 28840 ft 312 kts 88°
2026-05-04 03:16 13.71659 7.29205 28842 ft 312 kts 88°
2026-05-04 03:16 13.71819 7.33664 28842 ft 312 kts 88°
2026-05-04 03:17 13.71978 7.38093 28841 ft 312 kts 88°
2026-05-04 03:17 13.72135 7.42555 28846 ft 312 kts 88°
2026-05-04 03:18 13.72292 7.47014 28847 ft 312 kts 88°
2026-05-04 03:18 13.72448 7.51467 28843 ft 312 kts 88°
2026-05-04 03:19 13.72603 7.55922 28846 ft 312 kts 88°
2026-05-04 03:19 13.72758 7.60379 28848 ft 312 kts 88°
2026-05-04 03:20 13.72912 7.64834 28848 ft 312 kts 88°
2026-05-04 03:20 13.73064 7.69263 28850 ft 312 kts 88°
2026-05-04 03:21 13.73216 7.73720 28850 ft 312 kts 88°
2026-05-04 03:21 13.73368 7.78177 28852 ft 312 kts 88°
2026-05-04 03:22 13.73518 7.82635 28854 ft 312 kts 88°
2026-05-04 03:22 13.73669 7.87098 28853 ft 312 kts 88°
2026-05-04 03:23 13.73817 7.91533 28852 ft 312 kts 88°
2026-05-04 03:23 13.73965 7.95998 28856 ft 312 kts 88°
2026-05-04 03:24 13.74113 8.00460 28854 ft 312 kts 88°
2026-05-04 03:24 13.74260 8.04926 28853 ft 312 kts 88°
2026-05-04 03:25 13.74406 8.09394 28855 ft 312 kts 88°
2026-05-04 03:25 13.74551 8.13862 28855 ft 313 kts 88°
2026-05-04 03:26 13.74696 8.18328 28860 ft 313 kts 88°
2026-05-04 03:26 13.74839 8.22769 28861 ft 313 kts 88°
2026-05-04 03:27 13.74982 8.27242 28852 ft 313 kts 88°
2026-05-04 03:27 13.75125 8.31713 28858 ft 313 kts 88°
2026-05-04 03:28 13.75261 8.36188 28860 ft 313 kts 88°
2026-05-04 03:28 13.75390 8.40664 28860 ft 313 kts 88°
2026-05-04 03:29 13.75522 8.45148 28860 ft 313 kts 88°
2026-05-04 03:29 13.75651 8.49600 28858 ft 313 kts 88°
2026-05-04 03:30 13.75780 8.54081 28860 ft 313 kts 88°
2026-05-04 03:30 13.75908 8.58555 28863 ft 313 kts 88°
2026-05-04 03:31 13.76036 8.63029 28864 ft 313 kts 88°
2026-05-04 03:31 13.76173 8.67503 28862 ft 313 kts 88°
2026-05-04 03:32 13.76308 8.71952 28866 ft 313 kts 88°
2026-05-04 03:32 13.76442 8.76426 28863 ft 313 kts 88°
2026-05-04 03:33 13.76576 8.80908 28865 ft 313 kts 88°
2026-05-04 03:33 13.76708 8.85360 28861 ft 313 kts 88°
2026-05-04 03:34 13.76841 8.89837 28863 ft 313 kts 88°
2026-05-04 03:34 13.76972 8.94312 28862 ft 313 kts 88°
2026-05-04 03:35 13.76684 8.98762 28864 ft 313 kts 105°
2026-05-04 03:35 13.75589 9.03107 28867 ft 313 kts 104°
2026-05-04 03:36 13.74509 9.07443 28866 ft 313 kts 104°
2026-05-04 03:36 13.73420 9.11788 28866 ft 313 kts 104°
2026-05-04 03:37 13.72335 9.16125 28867 ft 313 kts 104°
2026-05-04 03:37 13.71255 9.20434 28868 ft 313 kts 104°
2026-05-04 03:38 13.70166 9.24776 28865 ft 313 kts 104°
2026-05-04 03:38 13.69077 9.29113 28865 ft 313 kts 104°
2026-05-04 03:39 13.67988 9.33452 28864 ft 313 kts 104°
2026-05-04 03:39 13.66904 9.37762 28859 ft 313 kts 104°
2026-05-04 03:40 13.65815 9.42090 28865 ft 313 kts 104°
2026-05-04 03:40 13.64724 9.46422 28859 ft 313 kts 104°
2026-05-04 03:41 13.63631 9.50758 28858 ft 313 kts 104°
2026-05-04 03:41 13.62539 9.55091 28857 ft 313 kts 104°
2026-05-04 03:42 13.61445 9.59427 28859 ft 313 kts 104°
2026-05-04 03:42 13.60351 9.63757 28856 ft 313 kts 104°
2026-05-04 03:43 13.59254 9.68096 28863 ft 313 kts 104°
2026-05-04 03:43 13.58165 9.72401 28865 ft 313 kts 104°
2026-05-04 03:44 13.57067 9.76739 28860 ft 314 kts 104°
2026-05-04 03:44 13.55968 9.81077 28863 ft 314 kts 104°
2026-05-04 03:45 13.54867 9.85420 28862 ft 314 kts 104°
2026-05-04 03:45 13.53766 9.89759 28863 ft 314 kts 104°
2026-05-04 03:46 13.52663 9.94100 28858 ft 314 kts 104°
2026-05-04 03:46 13.51559 9.98444 28863 ft 314 kts 104°
2026-05-04 03:47 13.50454 10.02790 28859 ft 314 kts 104°
2026-05-04 03:47 13.49348 10.07135 28857 ft 314 kts 104°
2026-05-04 03:48 13.48248 10.11455 28862 ft 315 kts 104°
2026-05-04 03:48 13.47137 10.15814 28860 ft 315 kts 104°
2026-05-04 03:49 13.46028 10.20163 28863 ft 315 kts 105°
2026-05-04 03:49 13.44918 10.24512 28862 ft 315 kts 105°
2026-05-04 03:50 13.43805 10.28866 28861 ft 315 kts 105°
2026-05-04 03:50 13.42691 10.33224 28863 ft 315 kts 105°
2026-05-04 03:51 13.41576 10.37582 28859 ft 315 kts 105°
2026-05-04 03:51 13.40469 10.41908 28859 ft 315 kts 105°
2026-05-04 03:52 13.39354 10.46257 28859 ft 315 kts 105°
2026-05-04 03:52 13.38236 10.50616 28861 ft 315 kts 105°
2026-05-04 03:53 13.37117 10.54976 28866 ft 315 kts 105°
2026-05-04 03:53 13.35999 10.59329 28865 ft 315 kts 105°
2026-05-04 03:54 13.34887 10.63655 28865 ft 315 kts 105°
2026-05-04 03:54 13.33730 10.67996 28863 ft 315 kts 106°
2026-05-04 03:55 13.32575 10.72338 28866 ft 315 kts 105°
2026-05-04 03:55 13.31421 10.76675 28860 ft 315 kts 105°
2026-05-04 03:56 13.30264 10.81020 28866 ft 315 kts 105°
2026-05-04 03:56 13.29108 10.85358 28858 ft 315 kts 106°
2026-05-04 03:57 13.27952 10.89689 28867 ft 315 kts 106°
2026-05-04 03:57 13.26802 10.94002 28866 ft 315 kts 106°
2026-05-04 03:58 13.25064 11.00504 28864 ft 315 kts 106°
2026-05-04 03:58 13.23906 11.04834 28867 ft 315 kts 106°
2026-05-04 03:59 13.22746 11.09166 28859 ft 315 kts 106°
2026-05-04 03:59 13.21592 11.13476 28864 ft 315 kts 106°
2026-05-04 04:00 13.20431 11.17807 28868 ft 314 kts 106°
2026-05-04 04:00 13.19269 11.22140 28866 ft 314 kts 106°
2026-05-04 04:01 13.18107 11.26468 28858 ft 315 kts 106°
2026-05-04 04:01 13.16952 11.30770 28862 ft 315 kts 106°
2026-05-04 04:02 13.15787 11.35102 28860 ft 315 kts 106°
2026-05-04 04:02 13.14819 11.38704 28864 ft 314 kts 106°
2026-05-04 04:03 13.13464 11.43738 28864 ft 315 kts 106°
2026-05-04 04:03 13.12297 11.48069 28872 ft 315 kts 106°
2026-05-04 04:04 13.11326 11.51669 28867 ft 315 kts 106°
2026-05-04 04:04 13.10159 11.56000 28866 ft 315 kts 106°
2026-05-04 04:05 13.08989 11.60332 28869 ft 315 kts 106°
2026-05-04 04:05 13.07819 11.64662 28867 ft 315 kts 106°
2026-05-04 04:06 13.06646 11.69003 28863 ft 315 kts 106°
2026-05-04 04:06 13.05481 11.73309 28866 ft 315 kts 106°
2026-05-04 04:07 13.04306 11.77650 28866 ft 315 kts 106°
2026-05-04 04:07 13.03132 11.81986 28864 ft 315 kts 106°
2026-05-04 04:08 13.01959 11.86316 28868 ft 315 kts 106°
2026-05-04 04:08 13.00783 11.90651 28862 ft 315 kts 106°
2026-05-04 04:09 12.99606 11.94987 28862 ft 315 kts 106°
2026-05-04 04:09 12.98430 11.99317 28867 ft 315 kts 106°
2026-05-04 04:10 12.97261 12.03619 28858 ft 315 kts 106°
2026-05-04 04:10 12.96083 12.07950 28857 ft 315 kts 106°
2026-05-04 04:11 12.94906 12.12274 28866 ft 315 kts 106°
2026-05-04 04:11 12.93728 12.16597 28860 ft 315 kts 106°
2026-05-04 04:12 12.92550 12.20921 28856 ft 315 kts 106°
2026-05-04 04:12 12.91378 12.25215 28863 ft 314 kts 106°
2026-05-04 04:13 12.90200 12.29531 28857 ft 314 kts 106°
2026-05-04 04:13 12.89021 12.33849 28858 ft 314 kts 106°
2026-05-04 04:14 12.87842 12.38163 28853 ft 314 kts 106°
2026-05-04 04:14 12.86669 12.42452 28861 ft 314 kts 106°
2026-05-04 04:15 12.85490 12.46759 28856 ft 314 kts 106°
2026-05-04 04:15 12.84310 12.51065 28859 ft 314 kts 106°
2026-05-04 04:16 12.83131 12.55370 28858 ft 314 kts 106°
2026-05-04 04:16 12.81948 12.59683 28859 ft 314 kts 106°
2026-05-04 04:17 12.80774 12.63959 28850 ft 313 kts 106°
2026-05-04 04:17 12.79593 12.68260 28856 ft 313 kts 106°
2026-05-04 04:18 12.78411 12.72559 28850 ft 313 kts 106°
2026-05-04 04:18 12.77229 12.76857 28855 ft 313 kts 106°
2026-05-04 04:19 12.76047 12.81152 28857 ft 313 kts 106°
2026-05-04 04:19 12.74863 12.85452 28854 ft 313 kts 106°
2026-05-04 04:20 12.73679 12.89745 28852 ft 313 kts 106°
2026-05-04 04:20 12.72502 12.94012 28856 ft 313 kts 106°
2026-05-04 04:21 12.71316 12.98310 28851 ft 313 kts 106°
2026-05-04 04:21 12.70129 13.02608 28857 ft 313 kts 106°
2026-05-04 04:22 12.68943 13.06900 28852 ft 313 kts 106°
2026-05-04 04:22 12.67763 13.11167 28858 ft 313 kts 106°
2026-05-04 04:23 12.66575 13.15462 28855 ft 313 kts 106°
2026-05-04 04:23 12.65387 13.19750 28847 ft 313 kts 106°
2026-05-04 04:24 12.64199 13.24037 28855 ft 313 kts 106°
2026-05-04 04:24 12.63010 13.28326 28850 ft 313 kts 106°
2026-05-04 04:25 12.61821 13.32610 28855 ft 313 kts 106°
2026-05-04 04:25 12.60636 13.36879 28847 ft 313 kts 106°
2026-05-04 04:26 12.59445 13.41166 28856 ft 313 kts 107°
2026-05-04 04:26 12.58253 13.45453 28853 ft 313 kts 106°
2026-05-04 04:27 12.57082 13.49744 28855 ft 313 kts 106°
2026-05-04 04:27 12.55906 13.54039 28857 ft 313 kts 106°
2026-05-04 04:28 12.54738 13.58305 28856 ft 313 kts 106°
2026-05-04 04:28 12.53562 13.62598 28855 ft 313 kts 106°
2026-05-04 04:29 12.52386 13.66887 28851 ft 313 kts 106°
2026-05-04 04:29 12.51209 13.71178 28856 ft 313 kts 106°
2026-05-04 04:30 12.50032 13.75466 28855 ft 313 kts 106°
2026-05-04 04:30 12.48854 13.79751 28855 ft 313 kts 106°
2026-05-04 04:31 12.47675 13.84043 28853 ft 313 kts 106°
2026-05-04 04:31 12.46497 13.88325 28852 ft 313 kts 106°
2026-05-04 04:32 12.45324 13.92585 28857 ft 312 kts 106°
2026-05-04 04:32 12.44143 13.96870 28859 ft 312 kts 106°
2026-05-04 04:33 12.42964 14.01149 28852 ft 312 kts 106°
2026-05-04 04:33 12.41792 14.05400 28856 ft 312 kts 106°
2026-05-04 04:34 12.40613 14.09671 28855 ft 312 kts 106°
2026-05-04 04:34 12.39433 14.13942 28856 ft 312 kts 106°
2026-05-04 04:35 12.38253 14.18212 28856 ft 312 kts 106°
2026-05-04 04:35 12.37073 14.22480 28857 ft 311 kts 106°
2026-05-04 04:36 12.35900 14.26718 28847 ft 311 kts 106°
2026-05-04 04:36 12.34721 14.30977 28856 ft 311 kts 106°
2026-05-04 04:37 12.32358 14.39502 28850 ft 311 kts 106°
2026-05-04 04:38 12.31177 14.43760 28850 ft 311 kts 106°
2026-05-04 04:38 12.29992 14.48019 28852 ft 311 kts 107°
2026-05-04 04:39 12.28646 14.52198 28854 ft 311 kts 108°
2026-05-04 04:39 12.27301 14.56431 28851 ft 311 kts 109°
2026-05-04 04:40 12.25958 14.60611 28852 ft 311 kts 108°
2026-05-04 04:40 12.24610 14.64816 28852 ft 311 kts 108°
2026-05-04 04:41 12.23263 14.69013 28854 ft 311 kts 108°
2026-05-04 04:41 12.21913 14.73217 28851 ft 311 kts 108°
2026-05-04 04:42 12.20570 14.77397 28849 ft 311 kts 108°
2026-05-04 04:42 12.19220 14.81594 28845 ft 311 kts 108°
2026-05-04 04:43 12.17869 14.85796 28840 ft 311 kts 108°
2026-05-04 04:43 12.16517 14.89994 28838 ft 311 kts 108°
2026-05-04 04:44 12.15165 14.94193 28836 ft 311 kts 108°
2026-05-04 04:44 12.13813 14.98389 28838 ft 311 kts 108°
2026-05-04 04:45 12.12460 15.02585 28835 ft 311 kts 108°
2026-05-04 04:47 12.07725 15.17252 28845 ft 311 kts 108°
2026-05-04 04:47 12.06369 15.21448 28846 ft 311 kts 108°
2026-05-04 04:48 12.05011 15.25647 28854 ft 311 kts 109°
2026-05-04 04:49 12.01608 15.36160 28867 ft 312 kts 109°
2026-05-04 04:49 12.00253 15.40342 28867 ft 312 kts 109°
2026-05-04 04:50 11.98888 15.44554 28872 ft 312 kts 109°
2026-05-04 04:50 11.97523 15.48760 28868 ft 312 kts 109°
2026-05-04 04:51 11.96158 15.52967 28864 ft 312 kts 109°
2026-05-04 04:51 11.94799 15.57152 28866 ft 312 kts 109°
2026-05-04 04:52 11.93432 15.61359 28866 ft 312 kts 109°
2026-05-04 04:52 11.92064 15.65565 28867 ft 312 kts 109°
2026-05-04 04:53 11.90693 15.69781 28863 ft 312 kts 109°
2026-05-04 04:53 11.89322 15.73993 28860 ft 312 kts 109°
2026-05-04 04:54 11.88183 15.77492 28857 ft 312 kts 109°
2026-05-04 04:54 11.86811 15.81702 28863 ft 312 kts 109°
2026-05-04 04:55 11.85218 15.86588 28859 ft 312 kts 109°
2026-05-04 04:55 11.84078 15.90083 28863 ft 312 kts 109°
2026-05-04 04:56 11.82707 15.94285 28864 ft 312 kts 109°
2026-05-04 04:56 11.81337 15.98483 28864 ft 312 kts 109°
2026-05-04 04:57 11.79965 16.02680 28861 ft 312 kts 109°
2026-05-04 04:57 11.78593 16.06879 28863 ft 312 kts 109°
2026-05-04 04:58 11.77219 16.11080 28864 ft 312 kts 109°
2026-05-04 04:58 11.75844 16.15278 28861 ft 312 kts 109°
2026-05-04 04:59 11.74478 16.19450 28862 ft 312 kts 109°
2026-05-04 04:59 11.73102 16.23650 28866 ft 312 kts 109°
2026-05-04 05:00 11.71724 16.27853 28861 ft 312 kts 109°
2026-05-04 05:01 11.69657 16.34154 28859 ft 312 kts 109°
2026-05-04 05:01 11.68279 16.38356 28864 ft 312 kts 109°
2026-05-04 05:02 11.66894 16.42569 28866 ft 313 kts 109°
2026-05-04 05:02 11.65513 16.46774 28865 ft 313 kts 109°
2026-05-04 05:03 11.64130 16.50980 28860 ft 313 kts 109°
2026-05-04 05:04 11.61368 16.59372 28873 ft 313 kts 109°
2026-05-04 05:04 11.59982 16.63581 28867 ft 313 kts 109°
2026-05-04 05:06 11.54431 16.80413 28873 ft 313 kts 109°
2026-05-04 05:07 11.53042 16.84621 28867 ft 313 kts 109°
2026-05-04 05:07 11.51647 16.88843 28871 ft 314 kts 110°
2026-05-04 05:09 11.45380 17.07787 28870 ft 314 kts 110°
2026-05-04 05:10 11.43984 17.12000 28872 ft 314 kts 109°
2026-05-04 05:10 11.42586 17.16217 28876 ft 314 kts 109°
2026-05-04 05:11 11.41189 17.20429 28874 ft 314 kts 110°
2026-05-04 05:11 11.39792 17.24639 28871 ft 314 kts 110°
2026-05-04 05:12 11.38393 17.28852 28870 ft 314 kts 110°
2026-05-04 05:12 11.37003 17.33035 28868 ft 314 kts 110°
2026-05-04 05:13 11.35606 17.37242 28870 ft 313 kts 109°
2026-05-04 05:13 11.34204 17.41455 28868 ft 313 kts 109°
2026-05-04 05:14 11.32802 17.45670 28869 ft 313 kts 109°
2026-05-04 05:14 11.31410 17.49852 28871 ft 313 kts 109°
2026-05-04 05:15 11.30009 17.54058 28868 ft 313 kts 109°
2026-05-04 05:15 11.28608 17.58264 28868 ft 313 kts 109°
2026-05-04 05:16 11.27205 17.62470 28869 ft 313 kts 109°
2026-05-04 05:16 11.25803 17.66675 28866 ft 313 kts 109°
2026-05-04 05:17 11.24400 17.70876 28870 ft 313 kts 109°
2026-05-04 05:17 11.23003 17.75060 28869 ft 313 kts 109°
2026-05-04 05:18 11.21597 17.79268 28868 ft 313 kts 109°
2026-05-04 05:18 11.20192 17.83473 28870 ft 313 kts 109°
2026-05-04 05:19 11.18786 17.87673 28874 ft 313 kts 109°
2026-05-04 05:19 11.17381 17.91872 28873 ft 313 kts 109°
2026-05-04 05:20 11.15975 17.96071 28877 ft 313 kts 109°
2026-05-04 05:20 11.14568 18.00271 28871 ft 313 kts 109°
2026-05-04 05:21 11.13169 18.04446 28879 ft 313 kts 109°
2026-05-04 05:21 11.11761 18.08644 28878 ft 313 kts 109°
2026-05-04 05:22 11.10353 18.12840 28874 ft 313 kts 109°
2026-05-04 05:22 11.08944 18.17038 28872 ft 313 kts 109°
2026-05-04 05:23 11.07532 18.21241 28878 ft 313 kts 109°
2026-05-04 05:23 11.06124 18.25433 28883 ft 313 kts 109°
2026-05-04 05:24 11.04722 18.29604 28881 ft 313 kts 109°
2026-05-04 05:24 11.03310 18.33802 28878 ft 313 kts 109°
2026-05-04 05:25 11.01898 18.37996 28883 ft 313 kts 109°
2026-05-04 05:25 11.00486 18.42190 28881 ft 313 kts 109°
2026-05-04 05:26 10.99074 18.46383 28886 ft 313 kts 109°
2026-05-04 05:26 10.97662 18.50571 28887 ft 313 kts 109°
2026-05-04 05:28 10.94287 18.60575 28885 ft 313 kts 109°